This is the latest recevied weather packets stored in our database for station/object W0AVQ. If no packets are shown the sender has not sent any weather packets the latest 10 day(s).
| Time | Temp. | Humidity | Pressure | Rain* | Wind** | Luminosity | Snow |
|---|---|---|---|---|---|---|---|
| 1777999336 | 16.67° C | 99% | 1010 hPa | 1.27 mm | - | 63 W/m² | - |
| 1777999034 | 16.67° C | 99% | 1010 hPa | 0 mm | - | 28 W/m² | - |
| 1777998732 | 16.67° C | 99% | 1010 hPa | 0 mm | - | 33 W/m² | - |
| 1777998429 | 16.67° C | 99% | 1010.6 hPa | 0 mm | - | 21 W/m² | - |
| 1777998126 | 16.67° C | 99% | 1010.1 hPa | 0 mm | - | 51 W/m² | - |
| 1777997823 | 16.67° C | 99% | 1009.9 hPa | 0 mm | - | 49 W/m² | - |
| 1777997521 | 16.67° C | 99% | 1009.9 hPa | 0 mm | - | 70 W/m² | - |
| 1777997218 | 16.67° C | 99% | 1010 hPa | 0 mm | - | 91 W/m² | - |
| 1777996916 | 16.67° C | 99% | 1010.1 hPa | 0 mm | - | 84 W/m² | - |
| 1777996612 | 16.67° C | 99% | 1010 hPa | 0 mm | - | 75 W/m² | - |
| 1777996308 | 16.67° C | 99% | 1010.2 hPa | 0 mm | - | 86 W/m² | - |
| 1777996004 | 16.67° C | 99% | 1009.9 hPa | 0 mm | - | 64 W/m² | - |
| 1777995700 | 16.67° C | 99% | 1010 hPa | 0 mm | - | 63 W/m² | - |
| 1777995398 | 16.67° C | 99% | 1009.9 hPa | 1.78 mm | - | 65 W/m² | - |
| 1777995095 | 16.67° C | 99% | 1010.2 hPa | 1.78 mm | - | 42 W/m² | - |
| 1777994791 | 16.11° C | 99% | 1010 hPa | 0 mm | - | 16 W/m² | - |
| 1777994487 | 16.11° C | 99% | 1009.9 hPa | 0 mm | - | 40 W/m² | - |
| 1777994183 | 16.67° C | 99% | 1010.1 hPa | 0 mm | - | 23 W/m² | - |
| 1777993880 | 16.11° C | 99% | 1010 hPa | 0 mm | - | 74 W/m² | - |
| 1777993576 | 16.11° C | 99% | 1010 hPa | 0 mm | - | 35 W/m² | - |
| 1777993273 | 16.11° C | 99% | 1010.2 hPa | 0 mm | - | 57 W/m² | - |
| 1777992969 | 16.11° C | 99% | 1010 hPa | 0 mm | - | 55 W/m² | - |
| 1777992668 | 16.11° C | 99% | 1010.1 hPa | 0 mm | - | 32 W/m² | - |
| 1777992364 | 16.11° C | 99% | 1009.9 hPa | 0 mm | - | 34 W/m² | - |
| 1777984192 | 17.22° C | 86% | 1009.9 hPa | 7.87 mm | - | 0 W/m² | - |
* Rain latest hour (hover to see other rain measurements)
** Current wind speed in m/s (hover to see current wind gust speed)